CW0570 Weather Reports


Display with metric or nautical units.
time (UTC)temp
F
wind
direction
speed
MPH
gust
MPH
rain 1hr
in
rain 24hr
in
rain mn
in
humidity
%
barometer
mb
20260509043005 52 15 0.0 4.0 0.00 0.00 0.00 87 1021.7
20260509041510 52 334 0.0 1.0 0.00 0.00 0.00 86 1021.6
20260509040003 53 334 0.0 5.0 0.00 0.00 0.00 85 1021.4
20260509034504 54 360 1.0 4.0 0.00 0.00 0.00 84 1021.2
20260509033003 55 309 1.0 3.0 0.00 0.00 0.00 82 1021.1
20260509031504 56 11 1.0 10.0 0.00 0.00 0.00 81 1021.0
20260509030001 57 346 1.0 12.0 0.00 0.00 0.00 78 1020.8
20260509024501 58 23 1.0 9.0 0.00 0.00 0.00 76 1020.8
20260509023000 59 5 1.0 8.0 0.00 0.00 0.00 75 1020.6
20260509021601 60 315 1.0 5.0 0.00 0.00 0.00 72 1020.6
20260509020112 62 336 2.0 8.0 0.00 0.00 0.00 69 1020.4
20260509014600 64 340 2.0 8.0 0.00 0.00 0.00 67 1020.2
20260509013103 65 25 2.0 9.0 0.00 0.00 0.00 66 1020.0
20260509011603 67 9 3.0 9.0 0.00 0.00 0.00 63 1019.9
20260509010101 69 325 0.0 3.0 0.00 0.00 0.00 62 1019.9
20260509004558 69 157 0.0 7.0 0.00 0.00 0.00 61 1020.0
20260509003059 70 270 2.0 8.0 0.00 0.00 0.00 60 1020.0
20260509001556 70 192 2.0 12.0 0.00 0.00 0.00 61 1020.0
20260509000055 71 266 1.0 7.0 0.00 0.00 0.00 61 1020.0
20260508234600 71 281 2.0 6.0 0.00 0.00 0.00 62 1020.0
20260508233058 71 279 2.0 9.0 0.00 0.00 0.00 55 1020.0
20260508231550 72 284 1.0 4.0 0.00 0.00 0.00 51 1020.0
20260508230046 72 294 2.0 5.0 0.00 0.00 0.00 61 1020.1
20260508224552 71 257 1.0 5.0 0.00 0.00 0.00 64 1020.3
20260508223043 71 261 2.0 6.0 0.00 0.00 0.00 65 1020.4
20260508221540 71 273 2.0 6.0 0.00 0.00 0.00 64 1020.5
20260508220046 71 175 1.0 8.0 0.00 0.00 0.00 66 1020.6
20260508214543 70 235 0.0 6.0 0.00 0.00 0.00 69 1020.7
20260508213039 70 219 1.0 6.0 0.00 0.00 0.00 67 1020.7
20260508211534 70 221 2.0 8.0 0.00 0.00 0.00 67 1020.7
20260508210036 70 331 2.0 9.0 0.00 0.00 0.00 67 1020.6
20260508204536 70 27 1.0 8.0 0.00 0.00 0.00 68 1020.6
20260508203033 69 343 1.0 5.0 0.00 0.00 0.00 69 1020.8
20260508201527 68 24 2.0 9.0 0.00 0.00 0.00 68 1021.0
20260508200025 68 318 1.0 9.0 0.00 0.00 0.00 69 1021.0
20260508194524 68 360 1.0 9.0 0.00 0.00 0.00 68 1021.0
20260508193022 67 292 1.0 6.0 0.00 0.00 0.00 70 1021.1
20260508191520 66 360 1.0 8.0 0.00 0.00 0.00 72 1021.3
20260508190016 65 347 1.0 4.0 0.00 0.00 0.00 71 1021.5
20260508184519 65 306 4.0 8.0 0.00 0.00 0.00 72 1021.6
20260508183010 63 16 1.0 6.0 0.00 0.00 0.00 76 1021.7
20260508181506 61 17 0.0 4.0 0.00 0.00 0.00 80 1021.8
20260508180002 60 326 2.0 5.0 0.00 0.00 0.00 79 1022.1
20260508174600 58 5 2.0 5.0 0.00 0.00 0.00 83 1022.1
20260508173054 57 11 1.0 6.0 0.00 0.00 0.00 84 1022.1
20260508171553 56 355 1.0 6.0 0.00 0.00 0.00 85 1022.2
20260508170054 55 348 1.0 6.0 0.00 0.00 0.00 86 1022.3
20260508164548 55 57 0.0 2.0 0.00 0.00 0.00 87 1022.4
20260508163059 54 271 1.0 5.0 0.00 0.00 0.00 88 1022.3
20260508161554 53 341 3.0 6.0 0.00 0.00 0.00 89 1022.4
20260508160043 52 360 1.0 3.0 0.00 0.00 0.00 89 1022.6
20260508154541 52 260 0.0 3.0 0.00 0.00 0.00 90 1022.4
20260508153055 52 254 1.0 3.0 0.00 0.00 0.00 90 1022.2
20260508151540 52 341 0.0 2.0 0.00 0.00 0.00 91 1022.3